Cahokia, IL

12:46 AM CDT on July 28, 2017 (GMT -0500)
Saint Louis Downtown

Weather History for KCPS - November, 2012

Change the Weather History Date:

Sunday, November 11, 2012

  Actual Average Record
Temperature  
Mean Temperature 54 °F -  
Max Temperature 66 °F 57 °F 80 °F (1949)
Min Temperature 39 °F 43 °F 23 °F (1950)
Degree Days  
Heating Degree Days 11    
Growing Degree Days 4 (Base 50)    
Moisture  
Dew Point 49 °F    
Average Humidity 83    
Maximum Humidity 94    
Minimum Humidity 58    
Precipitation  
Precipitation 1.33 in - - ()
Sea Level Pressure  
Sea Level Pressure 29.97 in    
Wind  
Wind Speed 9 mph (WSW)    
Max Wind Speed 21 mph    
Max Gust Speed 38 mph    
Visibility 6 miles    
Events Rain    
Averages and records for this station are not official NWS values.
T = Trace of Precipitation, MM = Missing Value Source: NWS Daily Summary

Daily Weather History Graph

Daily Weather History Graph

Search for Another Location

Airport or City:

Trip Planner

Search our weather history database for the weather conditions in past years. The results will help you decide how hot, cold, wet, or windy it might be!

Date:

Astronomy

Nov. 11, 2012 Rise Set
Actual Time 6:38 AM CST 4:50 PM CST
Civil Twilight 6:10 AM CST 5:18 PM CST
Nautical Twilight 5:38 AM CST 5:50 PM CST
Astronomical Twilight 5:07 AM CST 6:21 PM CST
Moon 3:54 AM CST (11/11) 3:12 PM CST (11/11)
Length of Visible Light 11h 07m
Length of Day
10h 11m
Waning Crescent, 7% of the Moon is Illuminated
Nov 11
Waning Crescent
Nov 13
New
Nov 20
First Quarter
Nov 28
Full
Dec 6
Last Quarter

Hourly Weather History & Observations

Time (CST) Temp. Windchill Dew Point Humidity Pressure Visibility Wind Dir Wind Speed Gust Speed Precip Events Conditions
12:53 AM 64.0 °F - 48.9 °F 58% 29.94 in 10.0 mi South 11.5 mph 20.7 mph N/A   Clear
1:53 AM 64.0 °F - 50.0 °F 60% 29.94 in 10.0 mi South 10.4 mph 23.0 mph N/A   Clear
2:53 AM 64.0 °F - 50.0 °F 60% 29.94 in 10.0 mi South 12.7 mph 20.7 mph N/A   Clear
5:53 AM 60.1 °F - 51.1 °F 72% 29.94 in 10.0 mi SE 9.2 mph - N/A   Clear
6:40 AM 59.0 °F - 51.8 °F 77% 29.97 in 10.0 mi SSE 8.1 mph - N/A   Mostly Cloudy
8:53 AM 62.1 °F - 52.0 °F 70% 29.95 in 10.0 mi SSE 11.5 mph - N/A   Overcast
10:53 AM 66.0 °F - 52.0 °F 60% 29.90 in 10.0 mi SSE 12.7 mph 26.5 mph N/A   Overcast
12:53 PM 66.9 °F - 54.0 °F 63% 29.82 in 10.0 mi SSE 20.7 mph 38.0 mph N/A   Partly Cloudy
2:53 PM 66.9 °F - 55.9 °F 68% 29.82 in 10.0 mi South 13.8 mph 20.7 mph 0.00 in Rain Light Rain
3:53 PM 57.0 °F - 54.0 °F 89% 29.88 in 2.0 mi WNW 16.1 mph 24.2 mph 0.17 in Rain Rain
4:03 PM 53.6 °F - 51.8 °F 94% 29.90 in 0.8 mi WNW 20.7 mph 28.8 mph 0.19 in Rain Heavy Rain
4:27 PM 53.6 °F - 51.8 °F 94% 29.93 in 2.0 mi WNW 12.7 mph 25.3 mph 0.37 in Rain Heavy Rain
4:53 PM 53.1 °F - 50.0 °F 89% 29.94 in 2.0 mi NW 15.0 mph - 0.46 in Rain Rain
5:53 PM 53.1 °F - 50.0 °F 89% 29.95 in 2.0 mi NW 6.9 mph - 0.14 in Rain Light Rain
6:00 PM 53.6 °F - 50.0 °F 88% 29.97 in 6.0 mi Calm Calm - 0.02 in Rain Rain
6:11 PM 53.6 °F - 50.0 °F 88% 29.97 in 9.0 mi Calm Calm - 0.02 in Rain Light Rain
6:20 PM 53.6 °F - 50.0 °F 88% 29.98 in 4.0 mi Calm Calm - 0.05 in Rain Rain
6:24 PM 53.6 °F - 50.0 °F 88% 29.96 in 3.0 mi Calm Calm - 0.06 in Rain Rain
6:50 PM 51.8 °F - 50.0 °F 94% 29.96 in 7.0 mi West 3.5 mph - 0.15 in Rain Light Rain
6:53 PM 52.0 °F - 50.0 °F 93% 29.96 in 9.0 mi Calm Calm - 0.15 in Rain Light Rain
7:14 PM 51.8 °F - 50.0 °F 94% 29.98 in 4.0 mi WSW 3.5 mph - 0.04 in Rain Rain
7:33 PM 51.8 °F - 48.2 °F 88% 29.99 in 3.0 mi West 4.6 mph - 0.10 in Rain Rain
7:53 PM 52.0 °F - 48.9 °F 89% 29.98 in 5.0 mi Calm Calm - 0.14 in Rain Rain
8:01 PM 51.8 °F - 50.0 °F 94% 29.98 in 4.0 mi Calm Calm - 0.02 in Rain Rain
8:12 PM 51.8 °F - 48.2 °F 88% 29.99 in 4.0 mi Calm Calm - 0.05 in Rain Light Rain
8:24 PM 51.8 °F - 48.2 °F 88% 30.00 in 3.0 mi Calm Calm - 0.08 in Rain Light Rain
8:45 PM 51.8 °F - 48.2 °F 88% 30.01 in 6.0 mi SSW 3.5 mph - 0.13 in Rain Light Rain
8:53 PM 51.1 °F - 48.9 °F 92% 30.01 in 4.0 mi SW 3.5 mph - 0.15 in Rain Rain
9:30 PM 51.8 °F - 48.2 °F 88% 30.00 in 5.0 mi Calm Calm - 0.08 in Rain Rain
9:39 PM 51.8 °F - 48.2 °F 88% 30.00 in 5.0 mi West 3.5 mph - 0.09 in Rain Light Rain
9:43 PM 51.8 °F - 48.2 °F 88% 30.01 in 5.0 mi WNW 8.1 mph - 0.10 in Rain Light Rain
9:53 PM 46.9 °F - 43.0 °F 86% 30.03 in 5.0 mi NW 17.3 mph 28.8 mph 0.12 in Rain Rain
10:12 PM 44.6 °F 37.4 °F 41.0 °F 87% 30.03 in 6.0 mi NW 16.1 mph 28.8 mph 0.04 in Rain Rain
10:25 PM 42.8 °F 35.1 °F 39.2 °F 87% 30.07 in 6.0 mi WNW 16.1 mph - 0.07 in Rain Rain
11:50 PM 39.2 °F 31.2 °F 35.6 °F 87% 30.11 in 10.0 mi WNW 13.8 mph 21.9 mph 0.02 in Rain Light Rain